Location: Boiro
(42.6475°N, 8.8834°W)
Time: 17:43:58
(UTC+01:00)

Transit 2A - Pass Details

Date: 04 December 2021
Orbit: 591 x 967 km, 66.7° (Epoch: 20 January)

Event Time Altitude Azimuth Distance (km) Brightness Sun altitude
Rises 01:16:42 0° 199° (SSW) 3,244 - -69.5°
Reaches altitude 10° 01:19:00 10° 196° (SSW) 2,376 - -69.5°
Maximum altitude 01:24:28 65° 116° (ESE) 949 - -69.6°
Drops below altitude 10° 01:30:30 10° 36° (NE) 2,622 - -69.6°
Sets 01:33:09 0° 34° (NNE) 3,605 - -69.5°
